Content
SEND FEEDBACK

Daily
Averages
Monthly
Summary
United States of America

ELIZABETHTOWN, NORTH CAROLINA


Home > North America > United States > North Carolina
Elevation: 39 feet     Latitude: 34 38N     Longitude: 078 35W

WEATHER
 
SELECT A DAY
Number of Records: 286,063;   Date Range: 5/15/02 - 7/23/14
 
SHARE

PRINT THIS DATA

[ ← Previous Day ]
WEATHER ALMANAC - JANUARY 31, 2013
[ Next Day → ]
[ °C ]   °F
Weather ElementAverageHighLow
Temperature50.3 °F71.6 °F (12:35 am)41.5 °F (10:55 pm)
Dewpoint32.8 °F63.9 °F (12:35 am)20.8 °F (3:15 pm)
Humidity54.8 %95 % (2:15 am)27 % (3:15 pm)
Barometer29.87 in30.09 in (11:55 pm)29.52 in (12:35 am)
Wind Speed12.3 mph26.5 mph (12:35 am)
Wind Gust41.4 mph (12:55 am)
Weather ElementAverage
Visibility9.6 mi
Wind DirectionWSW (251.1 °)

Weather ElementTotal
Precipitation0.30 in
Heating Degree Days8.5 (Base 65)
Growing Degree Days6.6 (Base 50)
Averaged from 70 records on January 31, 2013
WEATHER CONDITIONS BREAKOUT
WIND DIRECTION BREAKOUT
WEATHER BY HOUR - JANUARY 31, 2013
[ °C ]   °F
Local TimeTemperatureDewpointHumidityBarometerVisibilityWind DirectionWind SpeedGust SpeedPrecipitationEventsConditions
12:35 AM71.6 °F63.9 °F76 %29.52 in7.0 miSSW (200°)26.5 mph39.1 mphLight Drizzle
12:55 AM62.6 °F57.9 °F85 %29.59 in3.0 miWSW (250°)24.2 mph41.4 mph0.09 inRainRain
1:15 AM58.5 °F54.3 °F86 %29.61 in7.0 miWest (260°)23.0 mph35.7 mph0.01 inRainRain
1:35 AM56.7 °F54.5 °F92 %29.62 in7.0 miWSW (240°)16.1 mph25.3 mph0.03 inRainRain
1:55 AM56.3 °F54.7 °F94 %29.63 in5.0 miWSW (250°)15.0 mph24.2 mph0.05 inRainRain
2:15 AM55.6 °F54.1 °F95 %29.61 in7.0 miWSW (250°)9.2 mph20.7 mph0.03 inRainLight Rain
2:35 AM54.3 °F53.1 °F95 %29.63 in7.0 miWest (270°)15.0 mph19.6 mph0.04 inRainRain
2:55 AM54.0 °F52.7 °F95 %29.63 in10.0 miWSW (250°)9.2 mph18.4 mph0.05 inRainRain
3:15 AM54.0 °F52.2 °F94 %29.63 in10.0 miWSW (240°)8.1 mph18.4 mphOvercast
3:35 AM54.3 °F52.9 °F95 %29.65 in10.0 miWSW (240°)12.7 mph23.0 mphOvercast
3:55 AM53.1 °F50.2 °F90 %29.66 in10.0 miSW (230°)13.8 mph24.2 mphMostly Cloudy
4:15 AM52.2 °F48.4 °F87 %29.66 in10.0 miWSW (240°)12.7 mph19.6 mphScattered Clouds
4:35 AM52.2 °F47.7 °F85 %29.66 in10.0 miSW (230°)12.7 mph24.2 mphScattered Clouds
4:55 AM51.3 °F46.8 °F85 %29.68 in10.0 miWSW (240°)12.7 mph19.6 mphScattered Clouds
5:15 AM50.9 °F46.6 °F85 %29.69 in10.0 miSW (230°)12.7 mph19.6 mphScattered Clouds
5:35 AM50.9 °F46.4 °F85 %29.70 in10.0 miWSW (240°)9.2 mph20.7 mphMostly Cloudy
5:55 AM51.3 °F45.1 °F80 %29.71 in10.0 miWest (260°)12.7 mph27.6 mphOvercast
6:15 AM50.4 °F39.4 °F66 %29.74 in10.0 miWest (260°)16.1 mph31.1 mphMostly Cloudy
6:35 AM48.7 °F37.8 °F66 %29.76 in10.0 miWSW (250°)15.0 mph24.2 mphScattered Clouds
6:55 AM47.8 °F36.0 °F63 %29.77 in10.0 miWSW (240°)15.0 mph21.9 mphScattered Clouds
7:15 AM46.9 °F35.1 °F63 %29.79 in10.0 miWSW (250°)18.4 mph29.9 mphClear
7:55 AM46.9 °F33.8 °F60 %29.83 in10.0 miWSW (250°)16.1 mph21.9 mphOvercast
8:15 AM46.9 °F33.4 °F59 %29.83 in10.0 miWSW (250°)12.7 mph23.0 mphScattered Clouds
8:35 AM47.3 °F33.1 °F58 %29.85 in10.0 miWSW (250°)16.1 mph21.9 mphClear
8:55 AM47.5 °F33.1 °F57 %29.86 in10.0 miWSW (250°)17.3 mph23.0 mphClear
9:15 AM47.8 °F33.3 °F57 %29.87 in10.0 miWSW (250°)17.3 mph24.2 mphClear
9:35 AM48.0 °F32.4 °F55 %29.88 in10.0 miWest (260°)15.0 mph26.5 mphClear
9:55 AM48.6 °F32.0 °F53 %29.89 in10.0 miWest (260°)20.7 mph27.6 mphClear
10:15 AM48.7 °F31.1 °F51 %29.91 in10.0 miWest (260°)19.6 mph28.8 mphClear
10:35 AM49.6 °F30.6 °F48 %29.91 in10.0 miWest (280°)17.3 mph25.3 mphClear
10:55 AM50.0 °F29.3 °F45 %29.91 in10.0 miWest (270°)10.4 mph24.2 mphClear
11:15 AM50.4 °F27.9 °F42 %29.92 in10.0 miWest (270°)17.3 mph25.3 mphClear
11:35 AM50.7 °F28.0 °F42 %29.91 in10.0 miWest (270°)13.8 mph23.0 mphClear
11:55 AM52.0 °F28.8 °F41 %29.91 in10.0 miWSW (250°)18.4 mph21.9 mphClear
12:15 PM52.0 °F27.5 °F39 %29.90 in10.0 miWNW (290°)15.0 mph24.2 mphClear
12:35 PM52.2 °F27.3 °F38 %29.90 in10.0 miWSW (250°)10.4 mph18.4 mphClear
12:55 PM52.9 °F27.1 °F37 %29.89 in10.0 miWSW (250°)11.5 mphClear
1:15 PM53.2 °F25.3 °F34 %29.88 in10.0 miWest (270°)11.5 mph19.6 mphClear
1:35 PM53.8 °F24.3 °F32 %29.89 in10.0 miWSW (240°)11.5 mphClear
1:55 PM54.1 °F23.5 °F31 %29.89 in10.0 miWest (280°)13.8 mph21.9 mphClear
2:15 PM54.5 °F22.3 °F29 %29.89 in10.0 miWest (270°)18.4 mph26.5 mphClear
2:35 PM54.7 °F22.3 °F28 %29.90 in10.0 miWest (260°)15.0 mph18.4 mphClear
2:55 PM54.7 °F22.5 °F29 %29.90 in10.0 miWSW (250°)13.8 mph23.0 mphClear
3:15 PM54.1 °F20.8 °F27 %29.91 in10.0 miWest (280°)15.0 mph24.2 mphClear
3:35 PM54.3 °F21.6 °F28 %29.91 in10.0 miWest (270°)12.7 mph23.0 mphClear
3:55 PM54.1 °F22.3 °F29 %29.92 in10.0 miWest (280°)18.4 mph24.2 mphClear
4:15 PM54.0 °F22.6 °F30 %29.93 in10.0 miWest (280°)16.1 mph24.2 mphClear
4:35 PM53.8 °F22.1 °F29 %29.94 in10.0 miWest (270°)12.7 mph20.7 mphClear
4:55 PM53.1 °F20.8 °F28 %29.95 in10.0 miWNW (290°)12.7 mph21.9 mphClear
5:15 PM52.3 °F21.2 °F30 %29.96 in10.0 miWNW (300°)11.5 mph21.9 mphClear
5:35 PM51.8 °F22.6 °F32 %29.97 in10.0 miWest (270°)8.1 mphClear
5:55 PM50.0 °F23.0 °F35 %29.98 in10.0 miWest (260°)6.9 mphClear
6:15 PM49.5 °F22.3 °F34 %29.99 in10.0 miWest (260°)9.2 mphClear
6:35 PM48.6 °F22.8 °F36 %30.01 in10.0 miWest (260°)5.8 mphClear
6:55 PM48.4 °F22.6 °F36 %30.01 in10.0 miWest (260°)6.9 mphClear
7:15 PM47.3 °F23.0 °F38 %30.03 in10.0 miWest (260°)6.9 mphClear
7:35 PM46.0 °F23.9 °F42 %30.04 in10.0 miWSW (250°)3.5 mphClear
7:55 PM45.0 °F23.9 °F44 %30.04 in10.0 miSW (230°)4.6 mphClear
8:15 PM45.0 °F23.9 °F44 %30.05 in10.0 miSW (230°)3.5 mphClear
8:35 PM43.5 °F24.6 °F47 %30.05 in10.0 miSW (220°)4.6 mphClear
8:55 PM42.8 °F25.5 °F51 %30.05 in10.0 miSW (230°)4.6 mphClear
9:15 PM42.4 °F25.3 °F51 %30.05 in10.0 miSW (220°)4.6 mphClear
9:35 PM42.8 °F25.2 °F50 %30.06 in10.0 miSW (230°)5.8 mphClear
9:55 PM42.3 °F25.2 °F51 %30.07 in10.0 miSW (230°)5.8 mphClear
10:15 PM41.9 °F25.3 °F52 %30.07 in10.0 miSW (230°)4.6 mphClear
10:35 PM41.9 °F25.5 °F52 %30.08 in10.0 miSW (230°)5.8 mphClear
10:55 PM41.5 °F25.5 °F53 %30.08 in10.0 miSW (220°)5.8 mphClear
11:15 PM41.5 °F25.7 °F53 %30.07 in10.0 miSSW (210°)6.9 mphClear
11:35 PM42.1 °F25.3 °F52 %30.08 in10.0 miSW (220°)10.4 mphClear
11:55 PM42.1 °F25.3 °F52 %30.09 in10.0 miWSW (240°)5.8 mphClear
Hourly data recorded from KEYF, located miles away from Elizabethtown, North Carolina







STORIES FROM OUR PARTNERS